Simultaneous Nadir Overpasses (SNOs) Predictions

Prediction of SNOs between GOES-15 and NOAA-20 Satellite Orbit:

Table of predicted SNOs for the next 14.0 days since TLE Epoch: 9/3/2022
Index Date Time (GOES-15) GOES-15 Lat,Lon NOAA-20 Lat,Lon Distance(km) Time Diff (sec)
1 09/03/2022 10:13:56 0.38,-127.91 1.26,-131.72 435.95 80
2 09/04/2022 09:52:33 0.38,-127.88 0.21,-127.21 77.32 80
3 09/06/2022 21:55:46 -0.37,-127.78 -0.39,-127.98 22.60 80
4 09/07/2022 21:39:41 -0.36,-127.76 0.60,-123.45 491.15 80
5 09/09/2022 10:01:30 0.36,-127.76 0.59,-128.72 109.76 80
6 09/10/2022 09:40:05 0.36,-127.74 -0.41,-124.19 403.36 80
7 09/11/2022 22:02:02 -0.35,-127.65 -0.76,-129.50 210.80 80
8 09/12/2022 21:45:58 -0.36,-127.63 0.23,-124.97 302.96 80
9 09/14/2022 10:07:46 0.35,-127.64 0.95,-130.24 297.04 80
10 09/15/2022 09:46:22 0.35,-127.61 -0.05,-125.71 215.79 80
11 09/16/2022 22:08:19 -0.34,-127.51 -1.12,-131.02 400.60 80
